SCP
1 1 0 0 0 0 0 0 0 0 0 0 0 0 0 0 0 1 0 0 0 -0 0 -0 -0 -0 -0 -0 -0 -0 -0 -0 -0 -0 -0 -0 -0 -0 -0 -0 -0 -0 -0 -0 -0 -0 -0 -0 -0
0 1 0 0 0 0 0 0 0 0 0 0 0 0 0 0 0 0 0 0 0 0 0 -0 -0 0 -0 -0 -0 -0 -0 0 0 0 -0 -0 -0 -0 -0 -0 -0 -0 -0 -0 -0 -0 -0 -0 -0
1 1 0 0 0 0 0 0 0 0 0 0 0 0 0 0 1 0 0 0 0 0 0 0 0 0 0 -0 -0 -0 0 0 0 0 0 0 -0 -0 -0 -0 -0 -0 -0 -0 -0 0 0 0 0
1 1 1 0 0 0 0 0 0 0 0 0 0 0 1 1 1 1 0 0 0 0 0 0 0 0 0 -0 -0 -0 -0 -0 -0 0 0 0 -0 -0 -0 0 0 0 0 0 0 0 0 0 0
1 1 0 0 0 0 0 0 0 0 0 0 0 0 1 1 1 1 0 0 0 0 0 0 -0 0 0 0 0 -0 -0 -0 -0 -0 0 0 -0 -0 -0 0 0 0 0 0 0 0 0 0 0
1 1 0 0 0 0 0 0 0 0 0 0 0 0 2 1 1 1 0 0 0 0 0 -0 -0 -0 -0 -0 0 0 -0 0 0 0 0 0 0 0 0 0 0 0 0 0 0 0 0 0 0
1 1 0 0 0 0 0 0 0 0 0 0 0 0 1 2 2 1 1 2 1 0 0 -0 -0 -0 -0 -0 -0 -0 -0 -0 -0 0 0 0 0 0 0 0 0 0 0 0 0 0 0 0 0
0 1 0 0 0 0 0 0 0 0 0 0 0 0 0 2 2 1 1 1 2 1 0 -0 -0 -0 -0 -0 -0 -0 -0 -0 -0 -0 -0 -0 -0 0 0 0 0 0 0 0 0 0 0 0 -0
0 0 0 0 0 0 0 0 0 0 0 0 0 0 1 1 1 2 2 2 0 1 1 0 0 -0 -0 -0 -0 -0 -0 -0 -0 -0 -0 -0 -0 -0 0 0 0 0 0 0 -0 -0 -0 0 0
0 0 0 0 0 0 0 0 0 0 0 0 0 1 1 0 1 2 2 1 2 1 1 0 0 0 0 0 -0 -0 -0 -0 -0 -0 -0 -0 -0 -0 -0 -0 -0 -0 -0 -0 0 0 0 0 0
0 0 0 0 0 0 0 0 0 0 0 0 0 0 1 1 2 1 2 1 1 1 1 0 0 0 0 0 -0 0 -0 -0 -0 -0 -0 -0 -0 0 0 0 0 0 0 0 0 0 0 0 0
0 0 0 0 0 0 0 0 0 0 0 0 0 0 0 0 1 1 2 2 1 1 1 1 1 1 0 0 0 0 0 0 0 0 0 0 0 0 0 0 0 0 0 0 0 0 0 0 0
0 0 0 0 0 0 0 0 0 0 0 0 0 0 0 0 0 0 1 2 2 1 1 1 1 1 1 0 0 0 0 0 0 0 0 0 0 0 0 0 0 0 0 0 0 0 0 0 0
0 0 0 0 0 0 0 0 0 0 0 0 0 0 0 0 0 0 0 0 1 1 1 1 1 1 1 1 0 0 0 0 0 0 0 0 0 0 0 0 0 0 0 0 0 0 0 0 0
0 0 0 0 0 0 0 0 0 0 0 0 0 0 0 0 0 0 0 0 1 1 1 1 1 1 1 1 0 0 0 0 0 0 0 0 0 0 0 0 0 0 0 0 0 0 0 0 0
0 0 0 0 0 0 0 0 0 0 0 0 0 0 0 0 0 0 0 -0 1 1 1 1 1 1 1 1 1 1 1 0 0 0 0 0 0 0 0 0 0 0 0 0 0 0 0 0 0
0 0 0 0 0 0 0 0 0 0 0 0 0 0 0 0 0 0 0 0 1 1 1 1 1 1 1 1 1 1 1 1 0 0 0 0 0 0 0 0 0 0 0 0 0 0 0 0 0
0 0 0 0 0 0 0 0 0 0 0 0 0 0 0 0 0 0 0 0 0 1 1 1 2 1 1 1 1 1 1 1 1 1 1 0 0 0 0 0 0 0 0 0 0 0 0 0 0
0 0 0 0 0 0 0 0 0 0 0 0 0 0 0 0 0 0 0 0 1 1 1 1 2 2 2 2 2 1 1 1 2 2 1 1 0 0 0 0 0 0 0 0 0 0 0 0 0
0 0 0 0 0 0 0 0 0 0 0 0 0 0 0 0 0 0 0 0 1 1 1 2 1 1 2 2 2 2 1 1 2 1 1 1 1 1 0 0 0 0 0 0 0 0 0 0 0
0 0 0 0 0 0 0 0 0 0 0 0 0 0 0 0 0 0 0 0 1 2 2 2 1 1 1 1 1 1 1 1 1 1 1 1 0 1 1 1 0 0 0 0 0 0 0 0 0
0 0 0 0 0 0 0 0 0 0 0 0 0 0 0 0 0 0 0 0 0 0 1 2 2 1 2 1 1 1 2 2 1 1 1 0 0 0 0 0 0 0 1 0 0 0 0 0 0
0 0 0 0 0 0 0 0 0 0 0 0 0 0 0 0 0 0 0 0 0 0 0 0 1 1 1 1 1 1 1 3 1 2 1 0 0 0 0 0 0 0 0 0 0 0 0 0 0
0 0 0 0 0 0 0 0 0 0 0 0 0 0 0 0 0 0 0 0 0 0 0 0 0 0 1 1 1 2 1 0 1 1 1 2 1 1 0 0 0 0 0 0 0 0 0 0 0
0 0 0 0 0 0 0 0 0 0 0 0 0 0 0 0 0 0 0 0 0 0 0 0 0 0 0 0 0 1 1 1 1 1 1 0 0 0 0 0 0 0 0 0 0 0 0 0 0
0 0 0 0 0 0 0 0 0 0 0 0 0 0 0 0 0 0 0 0 0 0 0 0 0 0 0 0 0 0 0 0 0 0 0 0 0 0 0 0 0 0 0 0 0 0 0 0 0
0 -0 0 0 0 0 0 0 0 0 -0 0 0 0 0 0 0 0 0 0 0 0 0 0 0 0 0 0 0 0 0 0 0 0 0 0 0 0 0 0 0 0 0 0 0 0 0 0 0
0 0 0 0 0 0 0 0 0 0 0 0 0 0 0 0 0 0 0 0 0 0 0 0 0 0 0 0 0 0 0 0 0 0 0 0 0 0 0 0 0 0 0 0 0 0 0 0 0
0 0 0 0 0 0 0 0 0 0 0 0 0 0 0 0 0 0 0 0 0 0 0 0 0 0 0 0 0 0 0 0 0 0 0 0 0 0 0 0 0 0 0 0 0 0 0 0 0
0 0 0 0 0 0 0 0 0 0 0 0 0 0 0 0 0 0 0 0 0 0 0 0 0 0 0 0 0 0 0 0 0 0 0 0 0 0 0 0 0 0 0 0 0 0 0 0 0
Wind_Speed_500mb
22 11 12 16 14 15 35 39 20 16 21 12 7 7 6 14 8 8 28 23 43 48 53 52 46 41 36 31 24 20 17 14 15 18 23 27 30 31 27 22 17 15 15 18 22 26 29 34 35
18 19 20 23 18 27 30 41 28 23 18 20 11 8 6 16 22 16 32 32 48 47 50 48 47 41 35 29 23 20 16 15 17 21 25 31 35 34 30 27 24 23 24 26 30 33 34 34 35
23 24 25 12 24 34 33 40 27 12 9 21 17 10 12 12 14 20 17 42 49 45 48 45 47 42 34 29 23 19 15 15 18 22 25 27 32 32 31 29 29 30 32 34 34 34 33 34 34
22 20 20 26 40 51 37 21 31 23 16 18 21 15 13 12 6 12 29 43 47 41 47 45 44 41 36 30 25 20 18 19 21 22 27 21 25 27 30 31 33 35 35 35 34 34 33 32 32
33 23 23 33 49 44 35 4 29 25 20 21 24 18 22 5 9 15 36 47 45 40 49 45 44 39 34 30 26 23 19 21 16 22 28 25 18 23 26 29 32 33 33 33 33 32 30 29 29
21 32 26 39 54 47 31 19 32 25 16 11 21 22 12 5 15 27 41 45 43 39 37 45 42 39 33 28 28 26 25 21 18 24 28 32 22 18 22 26 28 29 30 30 30 30 28 27 27
31 27 42 54 49 46 23 31 35 28 22 8 3 20 13 11 21 32 45 56 47 42 37 42 44 41 35 30 28 26 24 23 28 30 28 28 28 19 19 21 23 24 25 24 24 24 23 23 22
26 15 53 48 41 54 39 38 26 28 18 13 2 11 22 15 30 31 37 56 48 47 36 40 39 40 37 34 28 28 20 22 27 24 24 25 29 23 21 20 19 18 20 19 19 19 18 18 16
23 10 35 58 52 49 52 35 33 16 24 11 7 12 12 21 29 37 43 48 42 39 43 41 41 37 34 29 33 28 23 23 16 12 16 21 23 27 17 19 17 16 15 15 14 13 12 10 9
30 15 47 49 46 37 43 48 34 25 23 18 17 14 18 29 31 41 42 46 44 45 44 45 36 38 37 34 31 27 28 23 13 11 14 19 17 19 19 16 17 14 14 11 10 9 8 5 4
37 42 45 42 54 27 11 42 47 34 30 25 19 17 22 30 32 35 40 38 46 46 50 42 41 37 39 37 29 28 20 16 16 15 16 19 22 30 32 23 21 16 12 9 6 5 3 4 7
25 64 47 52 12 21 27 37 39 35 32 22 20 20 19 27 36 39 43 40 43 43 41 48 34 46 38 32 32 33 27 21 17 19 20 20 17 20 21 19 16 18 12 10 8 1 9 7 7
45 22 48 38 8 21 33 46 47 39 36 17 21 25 21 21 28 40 43 44 39 48 39 40 43 36 35 36 35 31 25 26 18 19 20 18 19 20 21 21 19 13 12 7 8 13 12 10 9
34 38 23 37 26 32 43 40 30 33 39 21 26 25 22 22 25 28 39 45 43 42 49 38 45 40 39 37 33 35 36 25 22 19 20 21 18 20 21 22 22 20 19 17 15 13 13 13 13
23 20 32 25 40 19 18 27 42 45 26 33 35 32 28 24 21 23 23 35 39 37 41 47 49 50 41 42 34 35 34 31 27 21 19 22 21 21 23 20 21 20 17 17 17 17 19 15 15
31 28 33 32 34 41 30 41 41 43 39 37 39 38 36 31 23 20 19 30 38 31 34 36 47 48 53 42 40 37 35 32 26 23 21 24 23 24 24 22 23 20 19 19 18 17 15 16 14
22 17 42 40 32 32 34 29 42 49 50 39 41 41 42 41 37 23 21 26 38 35 34 34 38 41 47 52 45 39 36 34 26 25 24 24 22 24 24 21 18 21 23 23 20 18 17 14 17
29 42 46 49 38 38 38 39 24 44 48 45 44 44 45 47 47 38 30 27 35 35 33 36 40 34 34 39 48 49 44 37 32 32 31 24 23 25 25 22 20 21 24 24 23 21 21 21 17
12 44 35 46 35 40 38 42 28 22 35 43 45 45 47 45 45 45 30 38 36 40 34 33 42 39 37 35 42 50 49 45 41 35 34 28 24 24 26 24 22 26 26 25 24 25 27 27 25
18 27 41 42 31 36 35 38 34 28 31 40 40 43 39 43 42 51 32 33 43 46 42 40 33 36 39 32 32 39 41 40 37 40 37 35 33 32 30 30 30 29 31 31 31 32 33 32 28
19 30 38 46 25 24 23 32 35 33 42 36 35 39 44 44 41 52 36 26 43 48 46 44 41 34 37 36 32 36 36 31 29 32 32 37 39 36 40 38 36 37 38 39 38 39 40 38 35
21 29 28 35 30 21 27 13 35 39 40 38 43 46 43 39 38 43 36 30 37 43 44 44 49 46 40 36 33 32 27 27 28 22 27 30 29 37 44 44 47 47 46 48 48 45 44 45 46
6 29 15 28 28 22 28 14 28 46 43 39 43 49 45 42 39 51 44 33 41 39 43 38 36 38 41 33 43 24 27 25 26 20 26 34 40 42 37 42 49 57 49 48 49 50 48 47 45
9 12 21 18 17 13 27 30 22 23 32 36 37 46 45 44 41 50 37 30 33 31 38 44 39 42 38 38 40 28 30 30 28 23 30 36 35 56 52 48 51 58 51 47 47 50 52 49 49
6 10 9 8 8 12 30 25 7 15 6 21 33 43 45 44 45 47 46 34 33 39 29 34 33 35 46 45 52 53 48 26 38 28 36 46 45 54 52 57 62 54 52 51 51 52 52 52 51
6 3 4 12 16 22 6 15 15 17 13 15 15 13 37 44 44 48 52 46 34 45 41 34 20 26 35 36 38 35 43 42 40 42 47 53 57 61 58 55 54 54 56 56 54 54 53 51 50
7 11 13 11 2 15 16 15 14 11 10 10 17 18 20 22 31 39 37 41 36 43 44 44 38 25 27 34 47 54 53 49 56 56 53 60 55 54 54 55 55 57 56 56 54 52 51 50 46
6 13 6 5 9 10 10 21 13 18 16 13 13 27 27 21 25 28 40 40 31 29 38 43 48 45 35 30 34 39 42 44 43 42 43 43 45 46 46 44 44 45 47 48 50 50 47 40 40
9 5 14 9 5 8 12 9 19 18 14 10 3 6 15 19 22 24 21 31 32 30 39 43 47 69 64 50 36 33 35 33 33 36 36 36 35 35 35 35 35 35 36 35 33 33 36 39 43
6 12 17 7 7 3 5 10 13 20 14 15 15 6 6 11 15 18 26 25 29 32 35 40 43 43 43 40 35 31 28 28 30 33 34 34 36 37 38 38 38 39 38 37 32 31 27 32 34
Wind_Direction_500mb
210 207 212 206 220 234 226 229 210 209 206 189 122 229 343 30 4 90 140 146 157 154 161 163 164 162 160 158 154 145 132 115 108 104 97 92 106 112 123 134 137 130 118 107 103 97 95 95 96
216 212 203 225 238 213 223 212 189 216 202 162 188 198 210 104 55 91 148 144 151 154 158 162 164 164 162 158 153 145 134 121 112 109 106 99 104 103 104 110 114 116 111 105 103 101 98 98 98
183 202 210 220 222 231 218 208 170 169 189 201 193 209 166 69 61 128 145 152 153 157 155 171 163 165 164 160 154 145 131 119 114 114 111 104 102 98 96 102 108 109 109 106 104 103 102 99 98
195 202 248 221 214 226 227 172 189 165 184 192 210 179 109 69 93 127 150 153 156 158 157 176 164 163 166 161 157 150 141 135 128 126 117 108 107 102 97 100 108 110 108 106 105 106 105 102 103
206 214 218 218 229 218 227 151 165 181 178 176 194 142 130 31 91 144 152 155 157 159 172 171 166 168 166 164 162 154 149 147 147 150 138 131 118 109 103 102 109 112 112 109 109 109 110 106 105
204 212 206 215 218 220 189 191 183 179 162 148 198 169 96 69 112 139 149 157 159 165 173 173 168 173 170 163 165 163 158 162 167 163 157 148 137 129 117 110 114 119 119 117 115 114 113 111 108
220 203 215 213 216 219 168 185 201 177 165 119 27 202 109 140 145 150 159 159 156 170 176 166 170 175 174 168 176 168 168 173 151 148 148 158 149 152 141 125 121 125 126 122 116 109 106 101 98
229 246 226 221 219 214 173 182 200 188 120 108 55 147 145 141 150 142 152 163 158 168 162 165 170 175 176 179 181 176 179 166 157 131 149 162 169 160 162 149 134 128 128 132 128 120 112 106 107
223 218 215 224 216 216 173 181 193 185 132 126 84 70 119 151 155 150 166 160 164 172 161 168 177 171 176 180 185 179 179 177 173 169 154 154 170 178 167 163 151 146 137 130 128 127 125 119 107
217 230 220 219 228 224 170 184 177 185 159 149 123 114 115 142 152 162 160 168 170 179 172 173 173 173 176 188 192 186 185 188 184 193 171 136 168 172 173 184 168 165 169 152 138 131 127 116 35
217 232 219 226 244 329 169 203 169 200 186 185 166 151 140 153 157 166 169 168 172 179 181 177 184 174 184 186 185 184 180 184 184 182 164 170 170 189 181 195 185 190 191 192 198 178 143 163 187
231 226 242 246 304 216 229 258 205 215 210 199 188 171 160 160 172 169 178 175 177 186 188 179 184 180 182 184 180 188 165 192 192 191 180 181 175 178 179 186 204 205 203 207 149 97 237 236 233
219 237 226 239 232 192 246 201 235 204 228 174 199 172 182 172 171 186 189 188 180 187 188 188 190 183 191 184 181 191 180 195 200 194 190 186 184 179 182 182 188 187 216 238 222 219 231 240 249
208 224 253 222 160 266 206 226 224 247 216 195 188 189 190 181 171 174 200 202 193 195 197 197 196 195 195 198 190 192 190 196 202 199 196 194 190 185 186 188 193 194 201 206 213 223 227 234 238
270 255 228 247 219 198 228 230 228 226 189 210 199 197 194 185 176 177 187 205 202 204 204 208 207 204 196 200 203 192 195 198 199 201 203 203 200 194 200 196 208 206 209 207 221 224 227 232 239
242 262 214 210 218 211 194 229 221 212 226 211 207 201 202 199 195 187 186 182 185 196 203 206 206 209 206 206 201 201 209 198 201 208 210 216 216 215 217 213 215 212 213 221 223 224 230 231 238
200 214 213 206 210 210 194 228 226 204 201 203 211 213 216 214 214 203 193 194 187 190 198 206 209 211 211 212 208 205 205 205 206 212 216 225 216 219 219 221 220 217 222 227 227 228 224 233 238
177 213 199 200 186 208 204 232 239 188 214 216 217 221 215 226 219 210 195 201 194 187 199 208 208 209 215 215 214 211 203 208 203 212 214 212 221 224 221 215 217 222 229 233 237 230 239 238 242
330 212 204 199 179 202 211 212 198 209 210 214 217 214 222 220 221 206 199 201 204 198 193 200 205 214 216 213 214 216 211 209 206 212 215 213 219 227 227 222 224 227 231 235 237 242 242 255 255
254 243 215 194 167 188 213 206 222 186 210 217 217 220 214 226 219 205 193 194 202 200 202 200 206 211 219 216 215 219 222 222 230 230 231 233 231 231 238 236 232 231 238 237 239 245 253 256 255
228 231 206 190 157 187 211 226 217 224 230 216 223 228 227 225 219 209 187 191 192 198 197 200 196 205 216 214 217 221 214 217 235 243 251 252 250 249 247 246 249 251 253 256 255 256 257 256 260
243 208 211 199 174 193 215 215 217 224 226 226 226 225 226 227 221 212 189 190 183 191 194 197 198 209 214 209 214 214 217 224 236 236 261 261 278 258 259 262 259 256 257 257 259 260 261 260 256
289 328 195 191 189 191 194 242 256 194 216 216 216 222 220 221 219 210 200 193 193 182 183 190 189 200 207 217 219 223 227 222 244 242 255 277 288 283 273 269 275 265 256 257 257 257 258 258 257
48 242 228 181 201 209 193 210 228 189 222 211 214 213 217 212 209 200 191 182 190 194 202 193 190 196 222 227 237 240 241 241 251 249 275 285 278 273 274 266 260 262 261 261 261 258 259 256 255
55 193 150 157 196 222 209 190 234 86 146 223 209 214 212 211 207 208 204 202 205 209 216 211 218 220 207 215 230 224 235 255 250 238 239 250 257 264 262 262 260 259 261 261 260 259 258 258 257
189 243 212 171 188 181 154 222 221 249 254 188 238 240 217 208 212 214 215 211 211 214 211 223 231 240 233 223 237 248 241 233 236 253 240 236 242 249 255 258 260 262 261 259 256 256 257 258 258
137 228 317 307 190 167 166 239 281 191 206 221 211 213 220 222 224 217 217 217 211 225 217 226 232 245 242 237 244 236 234 242 250 240 242 249 250 254 259 262 264 263 262 261 258 255 254 254 257
265 333 240 239 169 180 172 203 98 176 173 176 205 206 203 209 214 218 222 218 209 214 219 224 227 240 264 242 226 224 225 227 231 237 242 249 256 260 261 263 263 263 263 262 259 257 252 247 251
150 245 232 281 282 241 146 168 95 107 98 102 116 215 224 221 210 212 208 209 206 203 215 217 213 215 238 236 231 227 229 233 238 243 247 251 255 257 259 261 263 266 266 264 261 254 251 248 240
146 235 233 256 185 352 301 95 142 116 89 46 59 111 173 200 198 194 191 183 185 202 201 199 203 203 206 214 222 228 234 236 242 244 248 251 254 256 260 262 263 262 262 263 257 256 245 240 243
Wind_Speed_850mb
22 11 12 16 14 15 35 39 20 16 21 12 7 7 6 14 8 8 28 23 43 48 53 52 46 41 36 31 24 20 17 14 15 18 23 27 30 31 27 22 17 15 15 18 22 26 29 34 35
18 19 20 23 18 27 30 41 28 23 18 20 11 8 6 16 22 16 32 32 48 47 50 48 47 41 35 29 23 20 16 15 17 21 25 31 35 34 30 27 24 23 24 26 30 33 34 34 35
23 24 25 12 24 34 33 40 27 12 9 21 17 10 12 12 14 20 17 42 49 45 48 45 47 42 34 29 23 19 15 15 18 22 25 27 32 32 31 29 29 30 32 34 34 34 33 34 34
22 20 20 26 40 51 37 21 31 23 16 18 21 15 13 12 6 12 29 43 47 41 47 45 44 41 36 30 25 20 18 19 21 22 27 21 25 27 30 31 33 35 35 35 34 34 33 32 32
33 23 23 33 49 44 35 4 29 25 20 21 24 18 22 5 9 15 36 47 45 40 49 45 44 39 34 30 26 23 19 21 16 22 28 25 18 23 26 29 32 33 33 33 33 32 30 29 29
21 32 26 39 54 47 31 19 32 25 16 11 21 22 12 5 15 27 41 45 43 39 37 45 42 39 33 28 28 26 25 21 18 24 28 32 22 18 22 26 28 29 30 30 30 30 28 27 27
31 27 42 54 49 46 23 31 35 28 22 8 3 20 13 11 21 32 45 56 47 42 37 42 44 41 35 30 28 26 24 23 28 30 28 28 28 19 19 21 23 24 25 24 24 24 23 23 22
26 15 53 48 41 54 39 38 26 28 18 13 2 11 22 15 30 31 37 56 48 47 36 40 39 40 37 34 28 28 20 22 27 24 24 25 29 23 21 20 19 18 20 19 19 19 18 18 16
23 10 35 58 52 49 52 35 33 16 24 11 7 12 12 21 29 37 43 48 42 39 43 41 41 37 34 29 33 28 23 23 16 12 16 21 23 27 17 19 17 16 15 15 14 13 12 10 9
30 15 47 49 46 37 43 48 34 25 23 18 17 14 18 29 31 41 42 46 44 45 44 45 36 38 37 34 31 27 28 23 13 11 14 19 17 19 19 16 17 14 14 11 10 9 8 5 4
37 42 45 42 54 27 11 42 47 34 30 25 19 17 22 30 32 35 40 38 46 46 50 42 41 37 39 37 29 28 20 16 16 15 16 19 22 30 32 23 21 16 12 9 6 5 3 4 7
25 64 47 52 12 21 27 37 39 35 32 22 20 20 19 27 36 39 43 40 43 43 41 48 34 46 38 32 32 33 27 21 17 19 20 20 17 20 21 19 16 18 12 10 8 1 9 7 7
45 22 48 38 8 21 33 46 47 39 36 17 21 25 21 21 28 40 43 44 39 48 39 40 43 36 35 36 35 31 25 26 18 19 20 18 19 20 21 21 19 13 12 7 8 13 12 10 9
34 38 23 37 26 32 43 40 30 33 39 21 26 25 22 22 25 28 39 45 43 42 49 38 45 40 39 37 33 35 36 25 22 19 20 21 18 20 21 22 22 20 19 17 15 13 13 13 13
23 20 32 25 40 19 18 27 42 45 26 33 35 32 28 24 21 23 23 35 39 37 41 47 49 50 41 42 34 35 34 31 27 21 19 22 21 21 23 20 21 20 17 17 17 17 19 15 15
31 28 33 32 34 41 30 41 41 43 39 37 39 38 36 31 23 20 19 30 38 31 34 36 47 48 53 42 40 37 35 32 26 23 21 24 23 24 24 22 23 20 19 19 18 17 15 16 14
22 17 42 40 32 32 34 29 42 49 50 39 41 41 42 41 37 23 21 26 38 35 34 34 38 41 47 52 45 39 36 34 26 25 24 24 22 24 24 21 18 21 23 23 20 18 17 14 17
29 42 46 49 38 38 38 39 24 44 48 45 44 44 45 47 47 38 30 27 35 35 33 36 40 34 34 39 48 49 44 37 32 32 31 24 23 25 25 22 20 21 24 24 23 21 21 21 17
12 44 35 46 35 40 38 42 28 22 35 43 45 45 47 45 45 45 30 38 36 40 34 33 42 39 37 35 42 50 49 45 41 35 34 28 24 24 26 24 22 26 26 25 24 25 27 27 25
18 27 41 42 31 36 35 38 34 28 31 40 40 43 39 43 42 51 32 33 43 46 42 40 33 36 39 32 32 39 41 40 37 40 37 35 33 32 30 30 30 29 31 31 31 32 33 32 28
19 30 38 46 25 24 23 32 35 33 42 36 35 39 44 44 41 52 36 26 43 48 46 44 41 34 37 36 32 36 36 31 29 32 32 37 39 36 40 38 36 37 38 39 38 39 40 38 35
21 29 28 35 30 21 27 13 35 39 40 38 43 46 43 39 38 43 36 30 37 43 44 44 49 46 40 36 33 32 27 27 28 22 27 30 29 37 44 44 47 47 46 48 48 45 44 45 46
6 29 15 28 28 22 28 14 28 46 43 39 43 49 45 42 39 51 44 33 41 39 43 38 36 38 41 33 43 24 27 25 26 20 26 34 40 42 37 42 49 57 49 48 49 50 48 47 45
9 12 21 18 17 13 27 30 22 23 32 36 37 46 45 44 41 50 37 30 33 31 38 44 39 42 38 38 40 28 30 30 28 23 30 36 35 56 52 48 51 58 51 47 47 50 52 49 49
6 10 9 8 8 12 30 25 7 15 6 21 33 43 45 44 45 47 46 34 33 39 29 34 33 35 46 45 52 53 48 26 38 28 36 46 45 54 52 57 62 54 52 51 51 52 52 52 51
6 3 4 12 16 22 6 15 15 17 13 15 15 13 37 44 44 48 52 46 34 45 41 34 20 26 35 36 38 35 43 42 40 42 47 53 57 61 58 55 54 54 56 56 54 54 53 51 50
7 11 13 11 2 15 16 15 14 11 10 10 17 18 20 22 31 39 37 41 36 43 44 44 38 25 27 34 47 54 53 49 56 56 53 60 55 54 54 55 55 57 56 56 54 52 51 50 46
6 13 6 5 9 10 10 21 13 18 16 13 13 27 27 21 25 28 40 40 31 29 38 43 48 45 35 30 34 39 42 44 43 42 43 43 45 46 46 44 44 45 47 48 50 50 47 40 40
9 5 14 9 5 8 12 9 19 18 14 10 3 6 15 19 22 24 21 31 32 30 39 43 47 69 64 50 36 33 35 33 33 36 36 36 35 35 35 35 35 35 36 35 33 33 36 39 43
6 12 17 7 7 3 5 10 13 20 14 15 15 6 6 11 15 18 26 25 29 32 35 40 43 43 43 40 35 31 28 28 30 33 34 34 36 37 38 38 38 39 38 37 32 31 27 32 34
Wind_Direction_850mb
210 207 212 206 220 234 226 229 210 209 206 189 122 229 343 30 4 90 140 146 157 154 161 163 164 162 160 158 154 145 132 115 108 104 97 92 106 112 123 134 137 130 118 107 103 97 95 95 96
216 212 203 225 238 213 223 212 189 216 202 162 188 198 210 104 55 91 148 144 151 154 158 162 164 164 162 158 153 145 134 121 112 109 106 99 104 103 104 110 114 116 111 105 103 101 98 98 98
183 202 210 220 222 231 218 208 170 169 189 201 193 209 166 69 61 128 145 152 153 157 155 171 163 165 164 160 154 145 131 119 114 114 111 104 102 98 96 102 108 109 109 106 104 103 102 99 98
195 202 248 221 214 226 227 172 189 165 184 192 210 179 109 69 93 127 150 153 156 158 157 176 164 163 166 161 157 150 141 135 128 126 117 108 107 102 97 100 108 110 108 106 105 106 105 102 103
206 214 218 218 229 218 227 151 165 181 178 176 194 142 130 31 91 144 152 155 157 159 172 171 166 168 166 164 162 154 149 147 147 150 138 131 118 109 103 102 109 112 112 109 109 109 110 106 105
204 212 206 215 218 220 189 191 183 179 162 148 198 169 96 69 112 139 149 157 159 165 173 173 168 173 170 163 165 163 158 162 167 163 157 148 137 129 117 110 114 119 119 117 115 114 113 111 108
220 203 215 213 216 219 168 185 201 177 165 119 27 202 109 140 145 150 159 159 156 170 176 166 170 175 174 168 176 168 168 173 151 148 148 158 149 152 141 125 121 125 126 122 116 109 106 101 98
229 246 226 221 219 214 173 182 200 188 120 108 55 147 145 141 150 142 152 163 158 168 162 165 170 175 176 179 181 176 179 166 157 131 149 162 169 160 162 149 134 128 128 132 128 120 112 106 107
223 218 215 224 216 216 173 181 193 185 132 126 84 70 119 151 155 150 166 160 164 172 161 168 177 171 176 180 185 179 179 177 173 169 154 154 170 178 167 163 151 146 137 130 128 127 125 119 107
217 230 220 219 228 224 170 184 177 185 159 149 123 114 115 142 152 162 160 168 170 179 172 173 173 173 176 188 192 186 185 188 184 193 171 136 168 172 173 184 168 165 169 152 138 131 127 116 35
217 232 219 226 244 329 169 203 169 200 186 185 166 151 140 153 157 166 169 168 172 179 181 177 184 174 184 186 185 184 180 184 184 182 164 170 170 189 181 195 185 190 191 192 198 178 143 163 187
231 226 242 246 304 216 229 258 205 215 210 199 188 171 160 160 172 169 178 175 177 186 188 179 184 180 182 184 180 188 165 192 192 191 180 181 175 178 179 186 204 205 203 207 149 97 237 236 233
219 237 226 239 232 192 246 201 235 204 228 174 199 172 182 172 171 186 189 188 180 187 188 188 190 183 191 184 181 191 180 195 200 194 190 186 184 179 182 182 188 187 216 238 222 219 231 240 249
208 224 253 222 160 266 206 226 224 247 216 195 188 189 190 181 171 174 200 202 193 195 197 197 196 195 195 198 190 192 190 196 202 199 196 194 190 185 186 188 193 194 201 206 213 223 227 234 238
270 255 228 247 219 198 228 230 228 226 189 210 199 197 194 185 176 177 187 205 202 204 204 208 207 204 196 200 203 192 195 198 199 201 203 203 200 194 200 196 208 206 209 207 221 224 227 232 239
242 262 214 210 218 211 194 229 221 212 226 211 207 201 202 199 195 187 186 182 185 196 203 206 206 209 206 206 201 201 209 198 201 208 210 216 216 215 217 213 215 212 213 221 223 224 230 231 238
200 214 213 206 210 210 194 228 226 204 201 203 211 213 216 214 214 203 193 194 187 190 198 206 209 211 211 212 208 205 205 205 206 212 216 225 216 219 219 221 220 217 222 227 227 228 224 233 238
177 213 199 200 186 208 204 232 239 188 214 216 217 221 215 226 219 210 195 201 194 187 199 208 208 209 215 215 214 211 203 208 203 212 214 212 221 224 221 215 217 222 229 233 237 230 239 238 242
330 212 204 199 179 202 211 212 198 209 210 214 217 214 222 220 221 206 199 201 204 198 193 200 205 214 216 213 214 216 211 209 206 212 215 213 219 227 227 222 224 227 231 235 237 242 242 255 255
254 243 215 194 167 188 213 206 222 186 210 217 217 220 214 226 219 205 193 194 202 200 202 200 206 211 219 216 215 219 222 222 230 230 231 233 231 231 238 236 232 231 238 237 239 245 253 256 255
228 231 206 190 157 187 211 226 217 224 230 216 223 228 227 225 219 209 187 191 192 198 197 200 196 205 216 214 217 221 214 217 235 243 251 252 250 249 247 246 249 251 253 256 255 256 257 256 260
243 208 211 199 174 193 215 215 217 224 226 226 226 225 226 227 221 212 189 190 183 191 194 197 198 209 214 209 214 214 217 224 236 236 261 261 278 258 259 262 259 256 257 257 259 260 261 260 256
289 328 195 191 189 191 194 242 256 194 216 216 216 222 220 221 219 210 200 193 193 182 183 190 189 200 207 217 219 223 227 222 244 242 255 277 288 283 273 269 275 265 256 257 257 257 258 258 257
48 242 228 181 201 209 193 210 228 189 222 211 214 213 217 212 209 200 191 182 190 194 202 193 190 196 222 227 237 240 241 241 251 249 275 285 278 273 274 266 260 262 261 261 261 258 259 256 255
55 193 150 157 196 222 209 190 234 86 146 223 209 214 212 211 207 208 204 202 205 209 216 211 218 220 207 215 230 224 235 255 250 238 239 250 257 264 262 262 260 259 261 261 260 259 258 258 257
189 243 212 171 188 181 154 222 221 249 254 188 238 240 217 208 212 214 215 211 211 214 211 223 231 240 233 223 237 248 241 233 236 253 240 236 242 249 255 258 260 262 261 259 256 256 257 258 258
137 228 317 307 190 167 166 239 281 191 206 221 211 213 220 222 224 217 217 217 211 225 217 226 232 245 242 237 244 236 234 242 250 240 242 249 250 254 259 262 264 263 262 261 258 255 254 254 257
265 333 240 239 169 180 172 203 98 176 173 176 205 206 203 209 214 218 222 218 209 214 219 224 227 240 264 242 226 224 225 227 231 237 242 249 256 260 261 263 263 263 263 262 259 257 252 247 251
150 245 232 281 282 241 146 168 95 107 98 102 116 215 224 221 210 212 208 209 206 203 215 217 213 215 238 236 231 227 229 233 238 243 247 251 255 257 259 261 263 266 266 264 261 254 251 248 240
146 235 233 256 185 352 301 95 142 116 89 46 59 111 173 200 198 194 191 183 185 202 201 199 203 203 206 214 222 228 234 236 242 244 248 251 254 256 260 262 263 262 262 263 257 256 245 240 243